TimeMST,TemperatureF,Dew PointF,Humidity,Sea Level PressureIn,VisibilityMPH,Wind Direction,Wind SpeedMPH,Gust SpeedMPH,PrecipitationIn,Events,Conditions,WindDirDegrees,DateUTC
12:53 AM,48.9,43.0,80,29.80,6.0,SSW,19.6,-,0.03,Rain,Rain,210,2012-11-09 07:53:00
1:53 AM,46.9,42.1,83,29.79,10.0,SW,11.5,-,N/A,Rain,Light Rain,220,2012-11-09 08:53:00
2:53 AM,46.0,43.0,89,29.80,8.0,SW,5.8,-,0.03,Rain,Light Rain,230,2012-11-09 09:53:00
3:53 AM,45.0,43.0,93,29.79,10.0,SSW,8.1,-,0.02,,Clear,210,2012-11-09 10:53:00
4:53 AM,44.1,41.0,89,29.82,10.0,South,9.2,-,N/A,,Clear,180,2012-11-09 11:53:00
5:53 AM,43.0,41.0,93,29.83,10.0,ENE,3.5,-,N/A,,Overcast,70,2012-11-09 12:53:00
6:53 AM,45.0,41.0,86,29.83,10.0,South,6.9,-,N/A,,Mostly Cloudy,190,2012-11-09 13:53:00
7:53 AM,46.9,41.0,80,29.82,10.0,North,-9999.0,-,0.02,Rain,Light Rain,0,2012-11-09 14:53:00
8:53 AM,50.0,39.9,68,29.79,10.0,Variable,3.5,-,0.00,,Mostly Cloudy,0,2012-11-09 15:53:00
9:53 AM,53.1,42.1,66,29.77,10.0,SSE,16.1,20.7,0.01,,Mostly Cloudy,160,2012-11-09 16:53:00
10:53 AM,54.0,42.1,64,29.75,10.0,SSE,11.5,18.4,0.00,Rain,Light Rain,150,2012-11-09 17:53:00
11:53 AM,55.0,44.1,67,29.71,9.0,SSE,18.4,27.6,0.00,Rain,Light Rain,160,2012-11-09 18:53:00
12:53 PM,55.9,39.9,55,29.66,10.0,South,18.4,26.5,0.00,,Mostly Cloudy,180,2012-11-09 19:53:00
1:31 PM,50.0,42.8,76,29.80,2.0,South,19.6,36.8,0.02,Rain,Heavy Rain,180,2012-11-09 20:31:00
1:38 PM,51.8,44.6,76,29.80,3.0,South,16.1,32.2,0.03,Rain,Light Rain,180,2012-11-09 20:38:00
1:53 PM,54.0,45.0,72,29.65,10.0,SSE,10.4,23.0,0.03,Rain,Light Rain,150,2012-11-09 20:53:00
2:53 PM,54.0,42.1,64,29.62,10.0,South,18.4,33.4,0.00,Rain,Light Rain,170,2012-11-09 21:53:00
3:53 PM,53.1,39.9,61,29.61,10.0,SSE,16.1,25.3,0.01,Rain-Thunderstorm,Light Rain,160,2012-11-09 22:53:00
4:13 PM,51.8,41.0,67,29.72,10.0,SSE,16.1,26.5,0.00,Rain,Light Rain,160,2012-11-09 23:13:00
4:53 PM,51.1,41.0,68,29.61,10.0,SW,4.6,-,0.03,,Overcast,220,2012-11-09 23:53:00
5:53 PM,53.1,36.0,52,29.63,10.0,South,20.7,29.9,N/A,,Mostly Cloudy,190,2012-11-10 00:53:00
6:53 PM,50.0,36.0,59,29.64,10.0,SSW,10.4,-,N/A,,Mostly Cloudy,210,2012-11-10 01:53:00
7:53 PM,53.1,30.9,43,29.62,10.0,South,25.3,32.2,N/A,,Overcast,180,2012-11-10 02:53:00
8:53 PM,52.0,30.0,43,29.62,10.0,South,17.3,27.6,N/A,,Overcast,180,2012-11-10 03:53:00
9:53 PM,51.1,30.0,44,29.60,10.0,South,26.5,33.4,N/A,,Overcast,180,2012-11-10 04:53:00
10:53 PM,50.0,28.0,43,29.58,10.0,South,24.2,34.5,N/A,,Overcast,180,2012-11-10 05:53:00
11:53 PM,50.0,28.0,43,29.55,10.0,South,32.2,39.1,N/A,,Overcast,190,2012-11-10 06:53:00